Location: Bailleul
(50.3375°N, 2.8513°E)
Time: 04:47:44
(UTC+00:00)

Cosmos 1980 - Pass Details

Date: 01 November 2021
Orbit: 839 x 847 km, 71.0° (Epoch: 01 December)

Event Time Altitude Azimuth Distance (km) Brightness Sun altitude
Exits shadow 03:14:37 31° 10° (N) 1,439 5.0 -32.8°
Maximum altitude 03:16:25 40° 50° (NE) 1,238 4.9 -32.5°
Drops below altitude 10° 03:21:43 10° 119° (ESE) 2,466 6.6 -31.7°
Sets 03:24:19 0° 127° (SE) 3,398 7.3 -31.3°
